Voltar ao catálogo

COSMOS 717

AtivoMilitarLEO
NORAD 7684·PAYLOAD·🇷🇺 Russia

Lançado Feb 28, 1975 de Plesetsk Cosmodrome

Loading…

Próximas Passagens (próximas 24 horas)

TLE

AtualizadoSource: Space-Track

Época: Sep 14, 2026, 12:48 UTC

1 07684U 75016G   26257.53389162 -.00000020  00000-0 -32833-4 0  9990
2 07684  74.0007 276.8761 0036178 250.7313 183.3960 12.39835738332915

Acompanhe COSMOS 717 em tempo real com AllMySat

Download on the App Store